Location: Lecco
(45.8566°N, 9.3977°E)
Time: 08:00:34
(UTC+01:00)

ISS - Visible Passes

Search period start: 22 January 2019 00:00
Search period end: 01 February 2019 00:00
Orbit: 404 x 410 km, 51.6° (Epoch: 23 January)

Date Brightness Start Highest point End Pass type
(mag) Time Alt. Az. Time Alt. Az. Time Alt. Az.
22 Jan -1.8 19:28:30 10° SW 19:30:01 23° SSW 19:30:01 23° SSW visible
23 Jan -2.6 18:37:37 10° SSW 18:40:26 26° SE 18:41:04 25° ESE visible
23 Jan -0.4 20:13:34 10° WSW 20:13:48 12° WSW 20:13:48 12° WSW visible
24 Jan -1.7 17:47:12 10° S 17:49:17 16° SE 17:51:22 10° E visible
24 Jan -3.1 19:22:08 10° WSW 19:24:46 54° WSW 19:24:46 54° WSW visible
25 Jan -3.6 18:30:51 10° SW 18:34:05 58° SSE 18:35:40 27° ENE visible
25 Jan -0.7 20:07:39 10° W 20:08:23 15° WNW 20:08:23 15° WNW visible
26 Jan -3.2 19:16:03 10° W 19:19:13 48° NNW 19:19:13 48° NNW visible
27 Jan -3.7 18:24:32 10° WSW 18:27:49 70° NNW 18:29:59 20° NE visible
27 Jan -0.9 20:01:46 10° WNW 20:02:42 16° WNW 20:02:42 16° WNW visible
28 Jan -2.7 19:10:07 10° W 19:13:10 33° NNW 19:13:25 33° N visible
29 Jan -3.0 18:18:27 10° W 18:21:37 42° NNW 18:24:07 15° NE visible
29 Jan -1.1 19:55:44 10° WNW 19:56:49 17° NW 19:56:49 17° NW visible
30 Jan -2.5 19:04:08 10° WNW 19:07:04 29° N 19:07:29 28° NNE visible
31 Jan -2.6 18:12:27 10° WNW 18:15:28 31° N 18:18:09 12° NE visible
31 Jan -1.4 19:49:31 10° NW 19:50:52 20° NW 19:50:52 20° NW visible
